Location: Heidgraben
(53.7081°N, 9.6576°E)
Time: 20:16:05
(UTC+00:00)

APEX - Pass Details

Date: 05 July 2020
Orbit: 333 x 1107 km, 69.9° (Epoch: 14 August)

Event Time Altitude Azimuth Distance (km) Brightness Sun altitude
Rises 23:40:42 0° 317° (NW) 2,150 7.0 -13.6°
Reaches altitude 10° 23:42:53 10° 302° (WNW) 1,282 5.6 -13.5°
Maximum altitude 23:45:08 23° 246° (WSW) 779 3.8 -13.5°
Enters shadow 23:45:33 22° 231° (SW) 803 3.8 -13.5°
